Ionia, MI

4:23 PM EDT on July 21, 2017 (GMT -0400)
Ionia

Weather History for KY70 - February, 2013

Change the Weather History Date:

Sunday, February 10, 2013

  Actual Average (KGRR) Record (KGRR)
Temperature  
Mean Temperature 30 °F -  
Max Temperature 43 °F 30 °F 61 °F (2009)
Min Temperature 16 °F 15 °F -21 °F (1899)
Degree Days  
Heating Degree Days 36    
Moisture  
Dew Point 24 °F    
Average Humidity 76    
Maximum Humidity 86    
Minimum Humidity 56    
Precipitation  
Precipitation 0.04 in - - ()
Sea Level Pressure  
Sea Level Pressure 29.93 in    
Wind  
Wind Speed 8 mph (ESE)    
Max Wind Speed 21 mph    
Max Gust Speed 26 mph    
Visibility 7 miles    
Events Rain    
Averages and records for this station are not official NWS values.
T = Trace of Precipitation, MM = Missing Value Source: NWS Daily Summary

Daily Weather History Graph

Daily Weather History Graph

Search for Another Location

Airport or City:

Trip Planner

Search our weather history database for the weather conditions in past years. The results will help you decide how hot, cold, wet, or windy it might be!

Date:

Astronomy

Feb. 10, 2013 Rise Set
Actual Time 7:44 AM EST 6:05 PM EST
Civil Twilight 7:14 AM EST 6:34 PM EST
Nautical Twilight 6:41 AM EST 7:08 PM EST
Astronomical Twilight 6:08 AM EST 7:41 PM EST
Moon 7:31 AM EST (2/10) 6:58 PM EST (2/10)
Length of Visible Light 11h 20m
Length of Day
10h 21m
New Moon, 0% of the Moon is Illuminated
Feb 10
New Moon
Feb 17
First Quarter
Feb 25
Full
Mar 4
Last Quarter
Mar 11
New

Hourly Weather History & Observations

Time (EST) Temp. Windchill Dew Point Humidity Pressure Visibility Wind Dir Wind Speed Gust Speed Precip Events Conditions
12:14 AM 20.1 °F 13.6 °F 14.9 °F 80% 30.19 in 10.0 mi SE 4.6 mph - N/A   Clear
12:33 AM 18.5 °F 10.4 °F 13.3 °F 80% 30.18 in 10.0 mi East 5.8 mph - N/A   Clear
12:54 AM 20.8 °F 14.4 °F 16.0 °F 81% 30.18 in 10.0 mi ESE 4.6 mph - N/A   Clear
1:13 AM 19.4 °F 11.5 °F 14.4 °F 81% 30.17 in 10.0 mi SE 5.8 mph - N/A   Clear
1:34 AM 18.3 °F 10.2 °F 13.5 °F 81% 30.16 in 7.0 mi ESE 5.8 mph - N/A   Clear
1:53 AM 19.2 °F 12.5 °F 14.9 °F 83% 30.15 in 10.0 mi ESE 4.6 mph - N/A   Clear
2:14 AM 18.1 °F 11.3 °F 14.0 °F 84% 30.15 in 7.0 mi East 4.6 mph - N/A   Clear
2:33 AM 17.4 °F 10.4 °F 13.3 °F 84% 30.15 in 5.0 mi East 4.6 mph - N/A   Clear
2:54 AM 17.1 °F 10.0 °F 12.9 °F 84% 30.14 in 4.0 mi East 4.6 mph - N/A   Clear
3:13 AM 17.8 °F 10.9 °F 13.5 °F 83% 30.15 in 5.0 mi ENE 4.6 mph - N/A   Haze
3:34 AM 17.1 °F 10.0 °F 13.1 °F 84% 30.14 in 4.0 mi East 4.6 mph - N/A   Clear
3:53 AM 18.1 °F 11.3 °F 14.0 °F 84% 30.14 in 5.0 mi East 4.6 mph - N/A   Clear
4:14 AM 18.0 °F 9.8 °F 13.6 °F 83% 30.13 in 5.0 mi East 5.8 mph - N/A   Haze
4:34 AM 18.1 °F 11.3 °F 13.8 °F 83% 30.12 in 5.0 mi East 4.6 mph - N/A   Clear
4:54 AM 19.0 °F 12.3 °F 14.9 °F 84% 30.12 in 5.0 mi East 4.6 mph - N/A   Clear
5:13 AM 19.9 °F 13.4 °F 15.6 °F 83% 30.13 in 5.0 mi East 4.6 mph - N/A   Clear
5:34 AM 18.5 °F 10.4 °F 14.4 °F 84% 30.13 in 5.0 mi East 5.8 mph - N/A   Clear
5:54 AM 18.3 °F 11.5 °F 14.0 °F 83% 30.13 in 5.0 mi East 4.6 mph - N/A   Clear
6:13 AM 18.5 °F 10.4 °F 14.4 °F 84% 30.12 in 7.0 mi East 5.8 mph - N/A   Clear
6:34 AM 16.5 °F 6.9 °F 12.0 °F 82% 30.12 in 5.0 mi East 6.9 mph - N/A   Clear
6:53 AM 16.9 °F 8.5 °F 12.6 °F 83% 30.12 in 5.0 mi East 5.8 mph - N/A   Haze
7:14 AM 16.9 °F 7.4 °F 12.4 °F 82% 30.11 in 5.0 mi East 6.9 mph - N/A   Haze
7:33 AM 18.7 °F 8.6 °F 14.5 °F 84% 30.10 in 7.0 mi East 8.1 mph - N/A   Clear
7:54 AM 19.6 °F 10.6 °F 15.4 °F 84% 30.10 in 5.0 mi East 6.9 mph - N/A   Clear
8:13 AM 18.3 °F 9.1 °F 13.8 °F 83% 30.08 in 5.0 mi East 6.9 mph - N/A   Clear
8:34 AM 21.7 °F 13.2 °F 17.6 °F 84% 30.05 in 5.0 mi ENE 6.9 mph - N/A   Mostly Cloudy
8:53 AM 22.5 °F 15.1 °F 18.5 °F 85% 30.04 in 5.0 mi East 5.8 mph - N/A   Overcast
9:14 AM 23.9 °F 18.0 °F 20.1 °F 85% 30.05 in 5.0 mi ESE 4.6 mph - N/A   Overcast
9:33 AM 24.8 °F 17.9 °F 21.0 °F 86% 30.04 in 7.0 mi East 5.8 mph - N/A   Overcast
9:54 AM 25.9 °F 20.3 °F 22.3 °F 86% 30.03 in 7.0 mi East 4.6 mph - N/A   Overcast
10:13 AM 27.5 °F 19.3 °F 23.5 °F 85% 30.02 in 7.0 mi ESE 8.1 mph - N/A   Overcast
10:34 AM 31.1 °F 23.1 °F 24.1 °F 75% 30.03 in 7.0 mi SE 9.2 mph - N/A   Overcast
10:53 AM 33.6 °F 26.8 °F 23.0 °F 65% 30.02 in 10.0 mi SE 8.1 mph - N/A   Overcast
11:14 AM 34.9 °F 27.1 °F 23.0 °F 62% 30.02 in 10.0 mi SSE 10.4 mph - N/A   Overcast
11:33 AM 35.6 °F 27.5 °F 23.0 °F 60% 30.02 in 10.0 mi SE 11.5 mph 16.1 mph N/A   Overcast
11:54 AM 36.5 °F 28.2 °F 23.9 °F 60% 30.00 in 7.0 mi SE 12.7 mph - N/A   Overcast
12:13 PM 36.5 °F 28.7 °F 24.4 °F 62% 29.98 in 10.0 mi SE 11.5 mph - N/A   Overcast
12:34 PM 36.5 °F 30.3 °F 25.0 °F 63% 29.97 in 10.0 mi SE 8.1 mph - N/A   Overcast
12:53 PM 37.4 °F 30.8 °F 24.1 °F 59% 29.95 in 10.0 mi SE 9.2 mph - N/A   Overcast
1:14 PM 37.8 °F 31.8 °F 24.6 °F 59% 29.92 in 10.0 mi ESE 8.1 mph - N/A   Overcast
1:33 PM 38.1 °F 31.7 °F 24.8 °F 59% 29.91 in 10.0 mi SE 9.2 mph - N/A   Overcast
1:54 PM 38.5 °F 32.7 °F 24.8 °F 58% 29.91 in 10.0 mi ESE 8.1 mph - N/A   Overcast
2:13 PM 38.7 °F 31.8 °F 25.0 °F 58% 29.89 in 10.0 mi ESE 10.4 mph - N/A   Overcast
2:34 PM 39.2 °F 33.0 °F 24.8 °F 56% 29.87 in 10.0 mi ESE 9.2 mph - N/A   Overcast
2:53 PM 39.4 °F 33.2 °F 25.9 °F 58% 29.84 in 10.0 mi East 9.2 mph - N/A   Light Drizzle
3:14 PM 39.7 °F 33.2 °F 26.6 °F 59% 29.82 in 10.0 mi East 10.4 mph - N/A   Overcast
3:33 PM 40.1 °F 32.7 °F 27.3 °F 60% 29.82 in 10.0 mi ESE 12.7 mph - N/A   Drizzle
3:54 PM 39.9 °F 32.9 °F 28.4 °F 63% 29.82 in 10.0 mi SE 11.5 mph - N/A Rain Light Rain
4:13 PM 39.6 °F 33.5 °F 29.7 °F 68% 29.81 in 10.0 mi ESE 9.2 mph - N/A Rain Rain
4:34 PM 39.2 °F 31.2 °F 30.2 °F 70% 29.79 in 7.0 mi ESE 13.8 mph - N/A Rain Light Rain
4:53 PM 39.2 °F 31.6 °F 30.7 °F 72% 29.77 in 10.0 mi SE 12.7 mph 20.7 mph N/A   Overcast
5:13 PM 39.4 °F 31.8 °F 30.7 °F 71% 29.76 in 10.0 mi SE 12.7 mph - N/A   Overcast
5:33 PM 39.6 °F 30.0 °F 30.9 °F 71% 29.72 in 7.0 mi SE 19.6 mph 24.2 mph N/A Rain Light Rain
5:54 PM 39.4 °F 30.4 °F 31.6 °F 74% 29.71 in 3.0 mi SE 17.3 mph 23.0 mph 0.02 in   Unknown
6:13 PM 39.6 °F 31.0 °F 32.0 °F 74% 29.70 in 7.0 mi SE 16.1 mph - N/A Rain Light Rain
6:34 PM 39.6 °F 30.3 °F 32.0 °F 74% 29.71 in 7.0 mi SSE 18.4 mph 24.2 mph N/A Rain Light Rain
6:54 PM 40.1 °F 30.5 °F 32.0 °F 73% 29.70 in 10.0 mi SE 20.7 mph 25.3 mph N/A   Overcast
7:13 PM 40.3 °F 31.0 °F 32.0 °F 72% 29.70 in 10.0 mi SSE 19.6 mph 25.3 mph N/A   Overcast
7:34 PM 39.7 °F 30.9 °F 33.1 °F 77% 29.69 in 5.0 mi SSE 17.3 mph 24.2 mph N/A   Drizzle
7:53 PM 39.9 °F 30.8 °F 34.2 °F 80% 29.67 in 3.0 mi SSE 18.4 mph 26.5 mph N/A   Heavy Drizzle
8:13 PM 39.7 °F 30.0 °F 34.5 °F 82% 29.67 in 4.0 mi SSE 20.7 mph - N/A Rain Light Rain
8:33 PM 39.9 °F 30.8 °F 34.9 °F 82% 29.66 in 5.0 mi SSE 18.4 mph 25.3 mph N/A Rain Light Rain
8:54 PM 40.1 °F 31.6 °F 35.2 °F 83% 29.64 in 5.0 mi SSE 16.1 mph 24.2 mph N/A Rain Light Rain
9:13 PM 39.9 °F 31.1 °F 35.6 °F 85% 29.64 in 4.0 mi SSE 17.3 mph 24.2 mph 0.01 in Rain Rain
9:33 PM 40.6 °F 32.7 °F 36.3 °F 85% 29.64 in 4.0 mi South 15.0 mph 21.9 mph 0.02 in Rain Light Rain
9:53 PM 41.4 °F 33.6 °F 36.5 °F 83% 29.63 in 7.0 mi South 15.0 mph 21.9 mph 0.02 in   Light Drizzle
10:14 PM 41.9 °F 34.6 °F 36.5 °F 81% 29.62 in 10.0 mi South 13.8 mph 20.7 mph N/A   Overcast
10:33 PM 42.1 °F 34.2 °F 36.5 °F 81% 29.60 in 10.0 mi South 16.1 mph - N/A   Overcast
10:54 PM 42.6 °F 35.2 °F 36.9 °F 80% 29.60 in 10.0 mi South 15.0 mph - N/A   Overcast
11:13 PM 43.0 °F 36.0 °F 37.6 °F 81% 29.59 in 10.0 mi South 13.8 mph - N/A   Overcast
11:34 PM 43.0 °F 37.2 °F 37.9 °F 82% 29.59 in 10.0 mi South 10.4 mph - N/A   Overcast
11:53 PM 42.8 °F 37.0 °F 38.1 °F 84% 29.58 in 10.0 mi South 10.4 mph - N/A   Overcast